[[{"header":{"parameterUnit":"m.s-1","parameterCategory":1,"la1":30.2991,"la2":30.254,"lo1":-89.0895,"lo2":-89.0444,"dy":0.0017,"dx":0.0017,"nx":28,"ny":28,"refTime":"2024-05-06T21:00:00:Z","depth":0,"parameterNumber":2,"parameterNumberName":"U-component_of_WINDS"},"data":[0,0,0,0,0,0,0,0,0,0,0,0,0,0,0,0,0,0,0,0,0,0,0,0,0,0,0,0,0,0,0,0,0,0,0,0,0,0,0,0,0,0,0,0,0,0,0,0,0,0,0,0,0,0,0,0,0,0,-0.4326,-0.4326,0,-0.4384,-0.4385,-0.4385,-0.4411,-0.4411,-0.4411,-0.4411,-0.4474,-0.4475,-0.4477,0,0,0,0,0,0,0,0,0,0,0,0,0,-0.424,-0.4241,-0.4325,-0.4326,-0.4327,-0.4384,-0.4385,-0.4385,-0.4411,-0.4411,-0.4411,-0.4411,-0.4473,-0.4475,-0.4477,0,0,0,0,0,0,0,0,0,0,0,0,0,-0.4285,-0.4242,-0.4325,-0.4347,-0.4349,-0.4384,-0.4385,-0.4386,-0.4411,-0.4411,-0.4411,-0.4411,-0.4472,-0.4475,-0.4477,-0.4496,0,0,-0.4485,-0.4487,0,0,0,0,0,0,0,0,-0.4283,-0.4289,-0.4343,-0.4345,-0.4348,-0.439,-0.4377,-0.4423,-0.4411,-0.4388,-0.4411,-0.4411,-0.4446,-0.4451,-0.4462,-0.4499,-0.4502,-0.4486,-0.4487,-0.4488,-0.4489,0,0,0,0,0,0,0,-0.428,-0.4286,-0.4349,-0.4344,-0.4347,-0.4354,-0.4361,-0.4386,-0.4417,-0.439,-0.4392,-0.4398,-0.4447,-0.446,-0.4464,-0.4503,-0.4486,-0.4488,-0.4489,-0.4491,-0.4558,-0.4559,0,0,0,0,0,0,-0.4273,-0.4283,-0.4347,-0.435,-0.4314,-0.4356,-0.4363,-0.4377,-0.4417,-0.4423,-0.4398,-0.4399,-0.4455,-0.4461,-0.4466,-0.4491,-0.4488,-0.4491,-0.4492,-0.4558,-0.4558,-0.4559,0,0,0,0,0,0,-0.4271,-0.4278,-0.4344,-0.4317,-0.4326,-0.4357,-0.4373,-0.4378,-0.439,-0.4423,-0.4429,-0.4405,-0.4455,-0.4462,-0.4488,-0.4493,-0.4492,-0.4494,-0.4558,-0.4558,-0.4559,-0.454,0,0,0,0,0,0,-0.4268,-0.4277,-0.4284,-0.4317,-0.4328,-0.4365,-0.4373,-0.4379,-0.4394,-0.4396,-0.4431,-0.4436,-0.4456,-0.4484,-0.4491,-0.4497,-0.4496,-0.4558,-0.4558,-0.4558,-0.454,-0.454,-0.4539,0,0,0,0,0,-0.4265,-0.4277,-0.4284,-0.4291,-0.4337,-0.4365,-0.4371,-0.4392,-0.4394,-0.4402,-0.4423,-0.4435,-0.4492,-0.4487,-0.4494,-0.4501,-0.4557,-0.4558,-0.4558,-0.4541,-0.454,-0.4539,0,0,0,0,0,0,-0.4244,-0.4281,-0.429,-0.4313,-0.4335,-0.4369,-0.4379,-0.4391,-0.4414,-0.4415,-0.4441,-0.4449,-0.4472,-0.449,-0.4483,-0.4522,-0.4526,-0.4528,-0.4509,-0.4509,-0.4508,-0.4504,-0.4499,0,0,0,0,0,-0.4241,-0.426,-0.4293,-0.431,-0.4321,-0.4348,-0.4361,-0.4375,-0.44,-0.441,-0.4433,-0.4458,-0.4481,-0.4496,-0.452,-0.4543,-0.4551,-0.4552,-0.4551,-0.455,-0.4552,-0.4566,-0.4567,-0.456,-0.456,-0.456,0,0,-0.4238,-0.4261,-0.4271,-0.4306,-0.4325,-0.4345,-0.4356,-0.4376,-0.4392,-0.4414,-0.4439,-0.4457,-0.4487,-0.4511,-0.4524,-0.4526,-0.4556,-0.4551,-0.455,-0.4552,-0.4567,-0.4567,-0.4568,-0.4561,-0.4561,-0.4561,0,0,-0.424,-0.4259,-0.4276,-0.4295,-0.4323,-0.4341,-0.4345,-0.4377,-0.439,-0.4416,-0.4433,-0.4452,-0.4492,-0.4512,-0.4527,-0.4538,-0.455,-0.4545,-0.4542,-0.4556,-0.4556,-0.4557,-0.4561,-0.4562,-0.4547,-0.4547,-0.4547,0,-0.4232,-0.4262,-0.4283,-0.4303,-0.4318,-0.4338,-0.4355,-0.4373,-0.4408,-0.4419,-0.4421,-0.4471,-0.4493,-0.4523,-0.4525,-0.4537,-0.4543,-0.4541,-0.4554,-0.4555,-0.4556,-0.456,-0.4562,-0.4546,-0.4546,-0.4546,-0.4546,0,-0.425,-0.4271,-0.4281,-0.4313,-0.4329,-0.4348,-0.4373,-0.4387,-0.44,-0.4419,-0.4445,-0.4471,-0.45,-0.4509,-0.4522,-0.4541,-0.4542,-0.4549,-0.4553,-0.4555,-0.456,-0.4562,-0.4545,-0.4545,-0.4545,-0.4545,0,0,-0.4241,-0.4285,-0.4288,-0.4303,-0.4336,-0.4353,-0.4373,-0.44,-0.4412,-0.4436,-0.4454,-0.4487,-0.4494,-0.4511,-0.4527,-0.4539,-0.4547,-0.4545,-0.4546,-0.4545,-0.457,-0.4564,-0.4565,-0.4555,-0.4555,-0.4556,-0.4567,0,-0.4249,-0.4284,-0.4304,-0.4331,-0.435,-0.437,-0.4387,-0.441,-0.4427,-0.4447,-0.4468,-0.449,-0.4498,-0.4508,-0.4521,-0.4543,-0.4552,-0.4543,-0.4573,-0.4573,-0.4564,-0.4568,-0.4562,-0.4571,-0.4569,-0.457,-0.457,0,-0.4262,-0.4284,-0.4313,-0.4344,-0.4353,-0.4368,-0.4395,-0.4413,-0.444,-0.4452,-0.4472,-0.4488,-0.451,-0.4513,-0.4545,-0.4538,-0.4552,-0.4565,-0.4566,-0.4569,-0.4572,-0.4572,-0.4575,-0.4576,-0.4573,-0.4572,-0.4572,0,-0.4253,-0.429,-0.4312,-0.4324,-0.4361,-0.4371,-0.4387,-0.4414,-0.4429,-0.4453,-0.4464,-0.449,-0.4505,-0.4526,-0.4549,-0.4549,-0.4579,-0.4584,-0.4591,-0.459,-0.4596,-0.4595,-0.4602,-0.4605,-0.4605,-0.4605,-0.4605,0,-0.4259,-0.4276,-0.4308,-0.4322,-0.4342,-0.4365,-0.4384,-0.4402,-0.4426,-0.4444,-0.4463,-0.448,-0.4509,-0.453,-0.4548,-0.4573,-0.4579,-0.459,-0.4595,-0.4589,-0.4587,-0.4598,-0.4598,-0.4605,-0.4605,-0.4605,-0.4605,0,-0.4252,-0.4274,-0.43,-0.4332,-0.4341,-0.4354,-0.4382,-0.4397,-0.4415,-0.4438,-0.4445,-0.4475,-0.45,-0.4525,-0.456,-0.4572,-0.4597,-0.4603,-0.4587,-0.459,-0.4595,-0.4594,-0.4609,-0.4612,-0.4612,-0.4612,-0.4612,0,-0.4255,-0.4268,-0.4301,-0.4314,-0.4329,-0.435,-0.4366,-0.439,-0.4405,-0.4437,-0.4448,-0.4475,-0.4497,-0.4538,-0.4563,-0.459,-0.4597,-0.46,-0.4601,-0.4594,-0.4597,-0.4596,-0.4598,-0.4599,-0.4599,-0.4599,-0.4599,0,-0.4257,-0.4267,-0.4288,-0.4313,-0.433,-0.4352,-0.4373,-0.4383,-0.4412,-0.4429,-0.4454,-0.4472,-0.4507,-0.4534,-0.4563,-0.4581,-0.4595,-0.4598,-0.4602,-0.4595,-0.4586,-0.4591,-0.4585,-0.4598,-0.4598,-0.4598,-0.4598,-0.4598,-0.4255,-0.4268,-0.4293,-0.4316,-0.4335,-0.4355,-0.437,-0.439,-0.4411,-0.4441,-0.4454,-0.448,-0.4508,-0.4549,-0.4567,-0.4588,-0.4592,-0.4596,-0.4597,-0.4598,-0.4597,-0.4582,-0.4594,-0.4594,-0.4594,-0.4594,-0.4594,0,-0.4258,-0.4275,-0.4296,-0.4325,-0.4344,-0.4354,-0.4379,-0.4394,-0.4416,-0.444,-0.4461,-0.4491,-0.4517,-0.4545,-0.4573,-0.4585,-0.4592,-0.4592,-0.4591,-0.4595,-0.4592,-0.4586,-0.4585,-0.4585,-0.4585,-0.4585,-0.4585,-0.4585,-0.4262,-0.4284,-0.4297,-0.4329,-0.4347,-0.4372,-0.4385,-0.4404,-0.4423,-0.4455,-0.4476,-0.4494,-0.4519,-0.4549,-0.4574,-0.4581,-0.4591,-0.4589,-0.4598,-0.4595,-0.4595,-0.4596,-0.4591,-0.459,-0.459,-0.4599,-0.4599,-0.4599]},{"header":{"parameterUnit":"m.s-1","parameterCategory":1,"la1":30.2991,"la2":30.254,"lo1":-89.0895,"lo2":-89.0444,"dy":0.0017,"dx":0.0017,"nx":28,"ny":28,"refTime":"2024-05-06T21:00:00:Z","depth":0,"parameterNumber":3,"parameterNumberName":"V-component_of_WINDS"},"data":[0,0,0,0,0,0,0,0,0,0,0,0,0,0,0,0,0,0,0,0,0,0,0,0,0,0,0,0,0,0,0,0,0,0,0,0,0,0,0,0,0,0,0,0,0,0,0,0,0,0,0,0,0,0,0,0,0,0,5.4547,5.4548,0,5.4587,5.4587,5.4588,5.4598,5.4598,5.4597,5.4597,5.4634,5.4635,5.4636,0,0,0,0,0,0,0,0,0,0,0,0,0,5.448,5.4481,5.4547,5.4548,5.4548,5.4587,5.4587,5.4588,5.4598,5.4598,5.4597,5.4597,5.4634,5.4635,5.4636,0,0,0,0,0,0,0,0,0,0,0,0,0,5.4513,5.4481,5.4547,5.4558,5.4559,5.4587,5.4587,5.4588,5.4598,5.4598,5.4597,5.4597,5.4633,5.4635,5.4637,5.4655,0,0,5.4642,5.4643,0,0,0,0,0,0,0,0,5.4511,5.4515,5.4556,5.4557,5.4559,5.4587,5.4577,5.461,5.4598,5.4583,5.4597,5.4597,5.4618,5.4621,5.463,5.4657,5.4658,5.4642,5.4643,5.4644,5.4645,0,0,0,0,0,0,0,5.4509,5.4514,5.4563,5.4557,5.4558,5.4561,5.4565,5.4583,5.4602,5.4584,5.4585,5.459,5.4619,5.4628,5.463,5.4659,5.4642,5.4644,5.4645,5.4646,5.4705,5.4706,0,0,0,0,0,0,5.4505,5.4512,5.4562,5.4564,5.4534,5.4562,5.4567,5.4578,5.4602,5.4605,5.459,5.459,5.4625,5.4628,5.4632,5.4656,5.4644,5.4646,5.4647,5.4705,5.4705,5.4706,0,0,0,0,0,0,5.4503,5.4509,5.456,5.4538,5.4545,5.4564,5.4576,5.4579,5.4588,5.4607,5.461,5.4596,5.4625,5.4629,5.465,5.4657,5.4647,5.4648,5.4704,5.4705,5.4706,5.4704,0,0,0,0,0,0,5.4501,5.4509,5.4516,5.4538,5.4546,5.4578,5.4577,5.458,5.4591,5.4592,5.4612,5.4615,5.4625,5.4647,5.4652,5.466,5.465,5.4704,5.4705,5.4705,5.4703,5.4704,5.4705,0,0,0,0,0,5.4499,5.4512,5.4516,5.4522,5.4555,5.4578,5.4582,5.4594,5.4592,5.4599,5.4612,5.4615,5.4656,5.4649,5.4654,5.4663,5.4703,5.4704,5.4705,5.4703,5.4704,5.4705,0,0,0,0,0,0,5.4488,5.4515,5.452,5.4541,5.4557,5.458,5.4589,5.4595,5.4611,5.461,5.4623,5.4628,5.4648,5.4658,5.4649,5.4683,5.468,5.4682,5.4676,5.4677,5.4678,5.4675,5.4651,0,0,0,0,0,5.4488,5.4505,5.4528,5.4544,5.4553,5.457,5.458,5.4588,5.4605,5.4611,5.4625,5.4641,5.4658,5.4668,5.4684,5.4705,5.471,5.4714,5.4715,5.4716,5.4717,5.473,5.4732,5.471,5.471,5.471,0,0,5.4488,5.4505,5.4515,5.4543,5.4556,5.4573,5.4575,5.4592,5.4605,5.4613,5.4634,5.4645,5.4664,5.4685,5.4695,5.4694,5.4725,5.4717,5.4718,5.4719,5.4732,5.4734,5.4736,5.471,5.471,5.471,0,0,5.4497,5.4512,5.4528,5.4543,5.4564,5.4576,5.458,5.4603,5.4611,5.4633,5.464,5.4655,5.4683,5.4697,5.4707,5.4726,5.4729,5.473,5.4735,5.4748,5.475,5.4752,5.4759,5.4761,5.4732,5.4732,5.4732,0,5.4494,5.4521,5.4535,5.4553,5.4566,5.4577,5.4594,5.4607,5.4632,5.464,5.4639,5.4676,5.4689,5.4715,5.472,5.4728,5.4733,5.4727,5.4749,5.4751,5.4752,5.4759,5.4762,5.4732,5.4732,5.4732,5.4732,0,5.4516,5.4535,5.4546,5.4572,5.4586,5.4603,5.462,5.4633,5.464,5.4652,5.4675,5.4692,5.4713,5.472,5.4726,5.4747,5.4745,5.4746,5.4743,5.4754,5.4761,5.4764,5.4732,5.4732,5.4732,5.4732,0,0,5.4516,5.4554,5.4557,5.4571,5.4597,5.4611,5.463,5.4652,5.4663,5.4681,5.4696,5.4722,5.4724,5.4736,5.4745,5.4756,5.477,5.4756,5.4756,5.4758,5.4795,5.4794,5.4797,5.4774,5.4774,5.4775,5.4794,0,5.4529,5.4563,5.4579,5.4606,5.4624,5.4636,5.4653,5.4671,5.4683,5.47,5.4713,5.4732,5.4733,5.474,5.4752,5.4766,5.4778,5.4765,5.4788,5.4789,5.4783,5.48,5.4798,5.4815,5.4796,5.4797,5.4797,0,5.4547,5.4568,5.4597,5.4624,5.4632,5.4647,5.467,5.4686,5.4707,5.4715,5.4731,5.474,5.476,5.4756,5.4784,5.4775,5.4786,5.4795,5.4796,5.4797,5.4793,5.4802,5.4821,5.4823,5.4801,5.4801,5.48,0,5.4545,5.458,5.4603,5.4614,5.4645,5.4656,5.4669,5.469,5.4703,5.4723,5.4732,5.4753,5.4765,5.4781,5.4796,5.4792,5.4823,5.482,5.483,5.483,5.4835,5.4834,5.4855,5.4843,5.4843,5.4842,5.4842,0,5.4557,5.4574,5.4603,5.4617,5.4638,5.4656,5.4676,5.469,5.4709,5.4726,5.4738,5.4753,5.4772,5.479,5.4801,5.4823,5.4828,5.4835,5.4838,5.4834,5.4833,5.484,5.4839,5.4843,5.4843,5.4843,5.4843,0,5.4557,5.4577,5.4603,5.4632,5.464,5.4654,5.4679,5.4693,5.4707,5.4729,5.4735,5.4757,5.4779,5.4796,5.4823,5.4831,5.4855,5.4858,5.4848,5.4849,5.4858,5.4857,5.4884,5.4888,5.4873,5.4873,5.4873,0,5.4563,5.4577,5.4609,5.4623,5.4637,5.4657,5.4672,5.4691,5.4705,5.4732,5.4743,5.4767,5.4786,5.4821,5.4839,5.4861,5.4864,5.4872,5.4867,5.4863,5.4864,5.4863,5.4865,5.4872,5.4872,5.4872,5.4872,0,5.4572,5.4582,5.4603,5.4628,5.4646,5.4666,5.4687,5.4697,5.4719,5.4735,5.4759,5.4774,5.4805,5.4828,5.4852,5.4865,5.4872,5.4874,5.4878,5.4873,5.4867,5.4871,5.4849,5.4873,5.4873,5.4873,5.4873,5.4873,5.4575,5.459,5.4615,5.4639,5.4657,5.4677,5.4692,5.471,5.4731,5.4758,5.4768,5.4793,5.4815,5.4849,5.4863,5.4882,5.4882,5.4887,5.4888,5.4889,5.4889,5.4865,5.4886,5.4886,5.4886,5.4886,5.4886,0,5.4585,5.4603,5.4625,5.4655,5.4674,5.4682,5.4706,5.4721,5.4743,5.4764,5.4784,5.4812,5.4836,5.4857,5.4881,5.4892,5.4896,5.4898,5.4897,5.49,5.4887,5.4882,5.4894,5.4894,5.4894,5.4894,5.4894,5.4894,5.4592,5.4618,5.4631,5.4666,5.4683,5.4709,5.4722,5.4741,5.4758,5.479,5.481,5.4824,5.4846,5.4872,5.4894,5.4899,5.4907,5.4908,5.4914,5.4902,5.4901,5.49,5.4895,5.491,5.491,5.4926,5.4926,5.4926]}]]